RH
82 80 77 70 66 68 66 71 75 76 82 79 80 82 80 81 82 82 83 83 82 84 84 82 79 81 85 83 82 82 90 92 86 92 85 74 76 81 83 78 79 81 79 77 78 81 80 78 72 64 61 63 61 56 52 47 48 46 37 31 29 28 27 26 26 24 24 23 23 24 24 24 24 24 24 24 24 23 23 23 22 20 18 16 14 12 11 12 13 15 20 27 33 35 38 38 38
69 73 73 68 65 69 73 78 80 85 90 84 81 77 76 82 86 81 77 73 72 79 82 83 80 78 81 81 85 87 93 90 83 85 78 71 71 75 77 72 75 76 73 75 76 77 77 72 64 56 57 59 56 52 47 44 45 41 35 32 29 26 26 27 27 27 27 26 26 26 26 26 26 26 26 26 26 26 25 25 24 22 21 19 16 13 11 12 14 14 16 22 30 34 37 39 39
57 62 65 65 64 68 74 75 78 92 94 87 80 72 79 85 85 80 72 67 65 71 76 82 85 81 79 81 88 90 90 85 81 80 74 70 67 69 69 68 70 69 71 75 73 70 65 60 54 50 51 51 47 47 48 46 43 40 36 33 30 26 27 30 30 31 30 30 29 28 28 28 28 29 29 30 30 30 29 29 28 26 25 24 20 16 13 11 13 14 15 19 27 33 36 41 42
43 52 61 58 62 69 75 73 80 98 85 80 81 70 80 84 81 78 70 66 63 65 69 77 83 85 87 85 89 90 84 80 81 78 73 70 65 65 64 66 68 66 69 70 71 64 52 50 49 44 42 43 43 45 47 45 43 41 38 35 32 29 31 33 33 32 31 31 31 30 30 30 31 31 33 34 34 34 34 34 34 33 32 30 25 21 17 14 13 14 16 19 24 31 35 40 43
29 41 54 54 65 70 73 73 77 93 81 74 76 66 73 78 76 73 70 67 64 64 65 70 73 80 83 79 82 80 72 71 76 72 70 67 61 61 59 61 62 63 62 60 63 56 45 43 42 38 38 41 41 43 44 44 42 39 39 39 36 34 32 32 32 31 31 30 30 30 31 32 33 34 35 36 36 36 36 37 38 39 39 36 32 28 23 19 16 16 20 23 23 28 34 39 42
23 30 44 50 58 61 74 78 58 59 66 66 65 64 67 70 72 69 69 67 65 64 64 67 64 66 68 68 71 67 61 61 62 60 61 61 57 55 54 57 56 56 54 50 50 45 41 38 36 35 36 37 38 40 40 40 40 39 41 40 35 33 28 27 28 27 27 27 27 29 31 33 34 35 36 36 36 35 37 39 40 40 41 40 39 37 34 30 24 19 19 24 27 28 32 38 41
27 28 43 49 48 61 76 67 41 31 45 52 49 53 55 60 64 63 66 65 64 60 60 64 60 58 59 62 64 60 57 55 51 51 54 55 53 51 48 51 49 49 48 44 41 38 35 33 33 33 33 33 34 36 34 38 41 37 36 31 26 25 23 23 24 23 23 23 25 28 31 33 34 36 36 37 36 36 38 39 40 39 39 39 39 40 41 41 37 32 25 22 24 27 31 37 42
38 42 59 63 56 74 69 40 31 29 35 44 39 38 42 48 51 51 55 58 60 55 51 54 56 60 55 55 57 53 51 50 49 47 49 48 47 46 43 44 44 45 43 39 37 32 30 30 30 28 27 27 31 34 31 34 34 27 25 22 19 19 20 21 20 19 20 22 25 28 31 34 36 39 39 40 40 39 39 39 39 39 41 43 43 42 40 40 41 40 38 32 27 25 27 31 38
43 52 65 69 69 82 68 35 29 29 30 36 31 29 31 36 43 46 47 48 50 46 40 38 49 61 54 50 49 44 44 42 43 42 43 43 42 43 40 41 41 41 39 35 32 28 26 26 26 23 21 21 26 30 24 23 23 19 17 16 17 17 18 18 18 19 21 25 28 31 35 39 42 45 45 45 46 44 42 42 42 43 48 50 50 49 46 44 42 40 40 39 36 33 31 29 30
47 59 57 61 80 90 78 47 30 30 29 30 28 26 25 30 38 42 46 42 38 36 28 27 39 51 51 48 46 42 42 37 35 34 34 36 38 41 38 37 37 36 34 30 26 24 22 22 21 20 17 16 18 20 17 17 17 15 14 14 16 15 18 20 21 22 24 28 31 35 39 44 47 48 50 51 52 50 48 48 47 48 52 53 51 50 50 49 48 46 43 41 40 39 38 37 34
56 68 55 62 89 88 80 53 31 33 29 28 29 27 25 27 32 35 44 39 41 36 18 29 34 34 44 45 46 45 43 36 30 28 26 27 29 32 32 32 32 30 28 24 23 20 19 20 18 17 16 15 16 16 14 14 14 13 14 15 18 20 23 24 21 22 27 32 35 41 44 47 49 50 54 56 57 55 53 53 52 50 52 54 53 51 50 50 49 47 48 47 47 45 43 43 43
60 66 61 78 91 76 74 56 35 34 28 27 25 24 23 24 30 37 47 43 48 35 17 49 42 24 39 38 42 45 41 35 28 27 23 23 22 23 24 25 26 25 24 21 20 19 19 19 16 17 18 18 16 15 12 12 13 14 17 19 23 25 25 23 18 19 26 33 38 43 46 48 50 52 54 56 57 57 57 57 54 52 52 54 51 51 52 51 49 46 47 46 44 45 46 45 45
64 60 62 78 79 69 66 50 36 37 35 28 22 20 19 23 31 36 53 53 50 37 32 63 43 21 36 33 39 41 39 34 29 31 26 23 20 19 19 19 22 21 22 20 18 18 19 19 17 19 19 18 16 13 12 14 16 17 20 22 23 22 22 22 20 20 23 29 31 33 34 35 37 40 43 45 48 50 52 55 55 56 56 55 52 51 49 46 44 44 46 46 41 39 40 40 40
70 60 58 61 64 68 59 52 46 46 43 29 24 22 15 23 30 29 42 49 54 51 43 49 36 31 33 23 33 34 36 35 31 33 27 24 19 17 18 17 18 17 20 19 17 18 19 20 19 19 18 17 15 13 14 16 19 21 22 22 21 21 21 21 21 22 22 24 25 26 26 25 26 27 29 31 33 34 36 39 42 46 48 46 44 41 39 38 39 40 43 46 44 40 38 37 34
67 63 62 57 60 65 57 63 55 49 46 28 27 24 18 20 21 23 26 38 58 55 35 28 35 48 36 19 26 28 32 33 29 26 20 21 17 16 17 14 15 15 18 18 17 19 20 21 20 21 19 17 16 15 18 21 24 23 24 25 25 25 25 26 25 25 25 26 26 27 28 28 29 29 29 30 31 32 32 34 35 37 38 37 37 38 40 42 43 43 41 41 43 42 40 37 32
55 59 66 67 63 70 63 56 52 57 49 29 27 23 24 18 15 23 19 29 43 36 27 27 41 56 41 21 21 19 22 24 18 15 14 18 16 14 14 13 15 15 16 18 19 20 22 24 22 22 19 17 17 18 22 24 25 24 25 26 26 28 30 32 32 31 30 29 28 27 27 26 27 27 28 28 28 29 29 30 31 33 33 35 38 42 46 48 49 48 44 41 41 41 40 38 36
45 51 67 76 67 77 66 46 55 66 47 27 25 20 24 19 13 21 19 21 19 22 36 40 43 52 45 25 15 10 9 11 8 11 14 15 13 12 12 12 14 15 17 17 18 21 24 24 22 21 18 17 19 22 23 23 23 23 23 24 25 26 28 33 34 33 29 24 21 17 15 14 14 14 14 15 14 13 13 12 12 14 14 16 19 23 27 32 37 41 43 42 42 42 43 44 44
39 50 72 85 81 80 60 49 55 53 41 28 25 20 19 18 12 11 15 18 13 19 35 38 33 45 54 29 8 9 7 7 9 11 12 12 12 11 12 12 13 15 16 16 16 19 22 22 21 20 17 18 20 22 21 20 21 21 22 22 22 22 24 28 30 26 20 15 11 8 7 7 7 6 6 7 7 6 5 5 4 3 3 4 5 5 7 10 14 19 24 28 32 35 38 42 44
41 60 76 84 88 74 48 49 48 42 44 28 25 24 15 17 13 8 13 15 15 15 21 29 26 40 53 22 4 12 9 9 12 12 10 11 12 11 12 11 12 13 14 19 19 18 19 20 21 19 17 18 19 19 19 19 20 21 21 21 19 19 20 21 21 17 12 9 6 5 5 7 7 5 7 7 9 13 10 9 10 8 6 4 5 7 6 7 8 6 7 11 14 18 21 26 32
42 62 81 79 76 66 44 43 44 42 44 29 28 28 18 17 11 11 15 13 19 18 18 26 27 40 42 13 7 13 10 12 13 13 13 13 12 11 11 10 10 10 13 20 20 18 19 19 20 18 16 17 17 19 19 19 20 20 17 16 15 15 15 14 13 11 8 6 5 6 7 8 9 8 9 9 12 18 19 21 25 24 20 11 12 19 16 13 13 9 8 9 10 10 10 11 14
45 61 90 88 74 73 52 37 43 39 39 39 35 31 27 21 10 12 14 13 22 22 19 25 29 39 31 7 5 10 10 12 12 14 14 14 14 11 10 8 9 9 12 18 18 16 16 17 17 15 14 14 16 19 20 19 18 18 15 12 12 12 12 12 10 8 7 6 6 8 9 8 10 10 9 9 10 13 15 21 29 29 28 24 22 25 21 11 10 12 10 10 11 8 6 5 5
48 60 82 83 77 88 65 37 39 37 45 50 38 38 37 24 15 14 14 15 20 20 20 25 31 33 29 17 7 6 11 11 11 15 14 14 13 11 10 8 9 11 14 16 15 13 12 14 14 12 13 14 15 16 18 18 15 14 13 10 10 10 11 11 10 8 7 7 8 7 8 7 7 7 7 8 8 9 9 14 29 32 30 34 28 22 19 10 6 8 8 6 7 5 5 5 5
45 59 68 65 67 81 68 40 33 33 48 51 38 43 37 25 22 19 26 25 18 19 19 26 34 28 31 32 17 7 10 12 14 15 14 14 11 10 10 10 11 14 15 14 11 10 11 11 11 12 13 14 15 14 14 14 12 11 12 11 10 9 10 10 9 8 7 6 7 6 6 6 6 7 10 12 11 10 10 12 23 26 24 28 21 14 18 14 6 5 5 5 5 5 5 5 5
43 57 67 64 55 58 59 42 33 36 46 47 41 41 30 26 24 21 36 29 15 20 17 23 33 30 31 33 33 30 17 17 23 17 13 11 9 9 9 12 14 14 13 11 10 10 10 10 11 12 13 14 13 12 13 12 11 10 11 12 11 12 11 11 10 7 6 5 6 7 7 6 7 10 12 14 13 12 11 10 15 17 18 20 14 12 17 13 7 6 6 5 5 5 6 6 6
39 43 57 63 53 49 52 36 27 37 46 44 40 36 28 27 23 23 33 22 16 21 13 18 28 37 43 37 43 43 21 22 27 16 12 10 9 9 9 13 15 13 12 9 9 9 9 10 11 12 12 12 12 13 13 11 10 8 8 9 10 12 14 15 13 7 5 5 6 7 7 7 9 12 15 15 14 14 13 16 19 19 20 19 16 14 14 13 8 7 7 6 6 6 6 7 7
54 49 47 56 61 54 49 33 23 37 45 37 33 32 27 24 20 22 26 20 24 25 16 19 21 31 46 42 39 30 14 18 19 10 11 11 10 10 9 12 12 11 11 9 9 9 9 9 9 10 10 11 13 13 12 9 8 7 6 6 6 8 11 13 13 8 5 5 6 7 7 9 11 14 20 20 16 14 16 22 22 18 20 20 16 13 11 12 10 8 7 7 7 7 7 7 7
74 69 49 46 57 52 40 27 21 33 36 27 29 33 26 21 22 23 20 19 29 29 23 22 15 20 39 46 36 17 11 12 9 8 11 11 11 11 10 9 9 8 9 10 10 8 8 8 8 9 11 12 13 11 9 9 8 7 6 6 6 6 6 7 8 7 6 6 6 8 8 9 12 15 20 21 15 13 18 24 21 17 20 20 17 16 12 11 10 8 9 8 8 8 8 8 8
56 55 42 30 32 29 23 18 19 28 27 24 29 30 23 22 26 22 15 19 29 27 21 21 16 13 26 44 32 6 7 9 5 9 10 11 12 10 10 8 8 7 6 9 9 8 8 8 9 10 12 12 11 10 8 9 8 6 6 6 6 6 6 6 6 6 6 6 7 7 7 9 12 14 18 18 14 13 17 21 19 16 19 18 17 19 16 12 10 10 13 12 9 9 9 9 10
38 35 31 29 25 20 18 13 17 26 27 25 26 31 28 23 24 18 12 19 27 21 16 22 23 13 13 32 28 3 3 5 3 8 7 9 11 9 10 8 7 7 6 7 6 7 8 8 10 10 12 11 10 9 8 8 8 7 6 6 6 6 6 6 6 7 6 6 7 7 7 8 9 12 18 18 13 13 16 18 18 17 21 20 17 20 19 12 10 10 13 13 9 9 9 9 10
41 34 28 37 41 42 35 16 15 27 31 23 21 39 35 21 22 18 12 15 20 19 15 18 24 20 12 17 18 5 3 3 2 5 5 6 8 7 7 6 6 6 5 6 6 7 7 8 10 10 11 11 10 9 9 8 7 7 7 6 6 6 6 6 7 7 7 7 7 7 7 7 8 12 18 17 12 11 14 18 20 20 22 20 17 23 21 13 10 9 9 9 9 9 9 9 9
44 39 34 38 50 73 60 20 17 29 30 20 21 50 51 30 25 20 15 15 16 21 18 12 15 17 13 11 11 7 4 3 2 2 2 4 4 5 4 4 5 4 5 5 5 6 6 7 9 10 11 10 10 10 10 9 7 7 7 6 6 6 6 6 6 6 7 7 7 7 7 8 9 10 13 12 10 10 13 17 19 18 19 16 14 18 17 11 9 8 8 7 7 8 8 9 9
46 43 51 45 45 85 78 25 20 30 29 20 21 54 71 55 35 22 19 17 15 18 18 14 12 12 12 13 12 9 7 5 4 2 2 3 2 3 3 3 3 3 4 4 4 5 5 7 8 8 9 9 10 10 10 9 8 7 6 6 5 5 6 5 6 6 6 7 7 7 8 8 9 9 10 10 10 9 10 13 14 13 12 11 10 10 10 9 8 8 7 7 6 6 7 8 8
47 42 66 67 48 80 84 38 23 30 29 20 20 49 79 74 45 27 22 18 16 13 16 19 15 13 13 16 13 9 8 6 5 4 3 3 2 2 2 3 3 3 4 3 4 5 5 6 6 7 7 8 9 8 8 7 7 7 6 6 5 5 6 5 6 6 6 7 7 7 10 11 8 8 10 9 9 8 8 9 12 12 8 8 8 8 8 8 7 8 8 7 7 7 6 7 7
57 48 59 68 62 77 81 53 28 29 33 25 20 37 72 82 55 37 25 16 19 15 16 20 16 18 20 20 16 8 6 5 6 5 4 4 3 3 2 2 3 3 4 3 4 4 5 5 5 6 6 6 7 6 7 7 6 6 6 5 5 5 5 5 6 6 6 7 7 7 10 12 8 7 8 8 8 7 7 7 9 10 8 7 8 7 8 8 8 8 8 8 7 7 7 7 6
67 66 58 60 70 77 78 69 40 31 39 29 18 26 61 85 66 47 29 17 25 22 19 20 16 18 19 19 19 14 7 3 5 5 4 5 3 3 3 2 3 2 3 3 3 4 4 5 5 5 6 5 6 5 6 6 6 6 5 6 5 5 6 6 6 6 6 7 7 7 8 9 7 7 7 7 8 7 7 7 8 8 7 8 7 8 8 7 8 8 8 8 7 7 7 7 6
67 74 70 67 74 74 76 81 59 40 39 32 28 31 53 77 72 56 35 21 29 29 25 27 21 18 17 15 16 15 9 4 4 5 5 5 5 5 4 3 3 3 3 3 3 3 3 4 4 5 5 5 5 6 6 5 6 6 5 5 5 6 6 6 6 6 7 7 7 7 7 8 7 7 7 7 8 7 8 9 9 8 7 7 7 7 8 7 8 8 8 8 7 7 7 7 7
67 72 73 75 75 72 70 78 71 49 37 36 41 40 45 62 69 58 36 22 29 34 31 29 26 21 18 15 13 12 9 6 5 4 4 4 4 4 4 4 4 3 4 3 3 4 3 4 4 4 5 5 5 5 6 6 6 6 6 5 5 6 6 6 6 6 7 7 7 7 7 7 7 7 8 8 10 10 12 13 14 13 12 11 9 9 9 8 8 7 7 7 7 7 6 7 6
64 69 71 76 73 68 64 67 73 57 39 39 40 40 41 49 58 51 35 24 25 31 28 25 26 23 19 17 13 12 10 8 7 5 5 4 4 4 4 4 4 4 3 3 3 3 4 4 3 4 4 5 5 5 5 6 6 6 5 5 5 6 6 7 6 7 7 7 7 7 7 8 8 8 9 10 12 14 17 18 19 20 20 20 18 16 14 13 11 9 7 6 7 7 7 7 6
62 69 67 74 73 68 64 65 76 64 43 40 41 45 46 46 53 49 37 27 20 23 24 22 24 24 22 19 15 15 13 12 11 8 7 5 5 5 4 4 3 4 3 3 3 3 3 4 3 4 4 4 4 4 5 5 5 5 5 5 6 6 6 6 7 7 7 7 7 8 8 8 9 9 9 10 11 14 16 18 20 22 23 24 23 22 20 18 15 13 10 7 6 7 6 6 6
56 70 67 70 70 66 63 67 75 64 47 44 46 52 53 52 55 49 41 35 24 23 24 23 23 24 23 20 16 15 14 13 13 11 10 9 8 6 5 5 4 4 4 3 3 3 3 3 3 3 3 4 4 4 5 5 5 5 5 6 6 6 7 7 7 7 7 8 8 8 9 9 9 10 10 11 12 14 16 19 20 21 22 24 25 24 22 20 18 15 12 8 6 6 6 6 6
42 61 67 67 64 61 63 69 73 66 61 57 49 49 50 50 52 47 42 39 29 26 29 26 23 21 20 18 16 15 14 14 14 13 13 13 13 10 7 6 5 4 4 4 3 3 4 3 3 3 3 4 4 5 5 5 5 5 6 6 6 7 7 7 7 8 8 8 8 9 9 10 10 11 12 13 14 16 19 22 23 23 23 23 21 20 18 17 17 15 12 9 6 6 6 6 6
30 46 59 65 64 58 61 69 68 67 68 62 51 47 42 38 45 50 49 43 33 29 30 29 26 23 20 19 18 18 20 20 21 21 20 22 21 18 17 14 10 7 5 5 5 4 4 4 3 3 4 4 4 5 5 5 5 6 6 7 7 7 7 8 8 8 9 9 10 10 11 12 13 13 14 14 15 17 22 25 23 19 15 14 13 12 13 14 14 13 10 8 7 6 6 6 8
31 37 41 53 63 63 63 65 66 70 70 62 53 48 45 42 44 50 50 44 37 33 30 30 32 30 26 27 27 26 27 27 27 29 31 36 36 33 31 26 20 16 11 6 5 5 4 4 4 4 4 4 5 5 5 6 6 6 7 7 8 8 8 8 9 9 10 10 12 13 13 14 13 13 13 13 13 15 18 19 15 10 7 7 8 9 11 11 10 9 8 7 6 6 7 7 8
28 35 36 40 54 66 66 61 66 75 74 67 54 43 48 51 48 49 49 43 39 35 31 30 33 34 31 32 34 32 33 32 30 33 37 42 44 42 40 37 33 29 24 18 11 7 5 5 5 5 5 5 5 5 5 6 7 6 7 7 7 8 9 10 10 11 12 13 15 14 13 12 12 11 10 10 10 11 12 12 10 9 8 8 8 8 9 9 9 8 7 7 7 6 9 11 11
14 31 47 49 51 61 64 61 66 76 80 78 66 49 45 46 48 56 57 49 42 34 32 33 34 36 34 32 35 36 35 34 32 33 37 41 41 41 42 43 42 38 38 38 29 17 10 7 6 5 5 6 6 6 6 6 7 7 8 9 9 10 11 11 12 12 14 16 15 13 11 11 10 9 9 10 12 12 13 13 15 16 16 17 17 14 10 8 9 9 10 9 9 8 11 14 15
11 24 47 58 56 56 63 66 67 71 78 84 83 70 54 45 49 61 60 48 42 39 38 38 36 34 30 31 38 40 35 34 35 33 35 38 37 36 38 41 45 47 50 54 49 38 24 16 13 10 7 6 6 6 7 7 8 9 9 10 11 13 14 15 15 15 18 17 13 11 10 9 10 12 14 15 15 16 18 21 24 28 33 37 39 36 28 18 12 10 11 11 11 11 12 15 17
15 23 41 56 55 53 62 68 67 65 67 74 81 79 67 52 48 57 58 46 42 46 45 44 46 39 33 36 41 41 38 36 35 33 31 32 33 33 34 38 45 51 55 59 59 55 45 32 26 25 22 18 14 10 8 8 8 9 10 11 15 18 22 22 20 21 20 15 11 11 12 14 17 17 17 19 22 27 31 35 38 42 46 48 49 50 48 43 35 27 24 24 23 17 12 13 17
13 21 41 55 52 58 66 66 65 62 62 65 69 75 77 67 55 54 58 57 52 51 50 51 52 47 46 47 42 39 43 40 32 29 27 25 28 31 33 38 45 50 52 54 54 54 53 48 42 40 38 36 33 27 19 14 12 14 16 20 25 29 32 29 26 25 20 13 13 17 19 20 20 19 21 27 31 35 36 38 40 42 43 43 44 47 51 57 58 54 52 53 52 44 29 17 14
8 15 40 56 55 63 70 65 64 63 65 72 69 71 76 70 61 55 59 70 66 53 51 53 51 55 63 61 50 45 44 38 30 28 28 26 27 30 32 37 41 44 45 44 44 45 48 51 52 52 50 48 48 43 35 27 25 27 29 32 35 37 37 33 31 27 17 14 19 23 24 22 21 22 26 29 29 28 28 28 29 30 31 34 40 49 58 65 68 69 70 71 74 73 61 43 27
7 10 37 65 66 66 70 63 62 64 67 73 70 70 76 70 60 56 58 69 73 62 54 53 52 63 77 72 60 54 47 38 31 29 30 31 33 34 32 33 34 35 37 36 35 35 37 40 46 53 58 57 56 53 45 38 35 36 37 38 38 37 36 35 35 26 16 18 26 27 26 24 23 25 26 27 26 26 26 25 26 28 31 35 43 55 64 67 69 73 77 79 81 84 84 77 61
5 3 30 67 61 51 62 61 60 66 66 66 64 64 69 67 63 64 59 58 69 70 57 56 63 72 86 82 62 54 52 43 32 30 35 36 38 40 34 30 29 29 30 29 28 27 27 30 34 43 54 58 59 57 51 44 40 41 40 36 33 31 30 35 35 24 17 23 29 29 27 25 26 28 29 29 28 27 27 29 32 35 41 50 59 67 70 73 77 80 81 82 83 84 89 94 91
5 -0 24 49 33 25 50 62 61 64 63 62 65 63 60 62 67 68 63 56 64 68 57 59 72 80 89 80 56 50 50 39 30 33 39 40 39 40 36 32 30 28 27 26 25 24 23 26 29 34 43 51 56 56 54 49 45 46 44 36 31 28 27 34 35 24 20 26 30 29 28 27 28 30 30 29 29 27 28 34 41 48 58 70 78 78 77 82 87 89 89 87 85 87 92 99 100
8 3 12 20 17 28 52 63 65 64 62 58 60 64 63 66 64 54 57 63 64 71 75 72 76 87 85 62 46 50 43 30 32 37 40 43 45 45 41 37 35 33 30 27 27 27 25 24 25 28 33 40 48 53 55 55 52 53 50 41 36 30 27 34 35 25 23 28 29 29 29 29 30 31 31 29 28 27 31 43 51 57 69 82 84 73 71 85 92 92 95 95 94 96 98 100 100
14 12 5 7 24 47 58 60 62 62 62 58 56 57 56 62 60 44 49 59 48 54 76 77 78 91 79 47 39 47 38 31 38 40 39 42 44 45 43 42 44 43 37 31 30 29 27 26 26 26 27 29 33 37 41 45 46 47 44 40 36 30 28 35 34 27 28 31 30 31 32 32 32 32 30 29 29 32 40 48 52 62 80 92 88 68 63 85 98 95 96 97 95 98 100 100 100
12 15 13 14 26 46 57 58 59 60 60 57 59 59 51 55 63 52 52 61 43 36 60 72 71 75 69 55 50 44 33 36 44 43 42 41 41 45 47 48 50 50 45 38 33 30 28 30 30 27 27 25 23 22 22 25 27 28 29 31 29 27 30 35 34 30 31 32 32 34 34 34 34 34 34 35 35 38 44 47 52 70 85 85 82 74 69 82 94 91 88 87 89 97 101 98 95
5 12 24 28 21 32 54 59 58 61 61 56 57 61 55 53 62 58 60 73 57 37 51 61 50 49 59 66 65 49 35 39 45 44 44 45 45 48 51 53 54 55 51 44 37 33 28 29 31 30 29 26 23 21 17 14 15 15 18 20 22 27 33 36 34 33 32 32 33 35 36 36 35 37 40 42 43 46 49 53 62 75 74 61 61 69 68 68 75 79 77 77 86 97 97 88 82
4 4 20 32 28 32 49 56 55 56 60 60 57 59 61 59 59 55 58 73 66 49 55 58 48 49 57 61 65 58 44 40 44 44 45 48 49 50 52 55 57 56 52 46 41 37 29 26 31 35 32 29 27 23 17 12 11 11 13 20 27 33 37 36 34 32 33 34 35 38 39 37 36 39 42 44 48 50 49 55 68 72 63 52 52 58 59 56 59 67 71 72 81 91 87 77 70
11 5 4 18 31 41 47 47 48 50 54 60 58 57 62 60 58 57 58 67 68 60 63 65 63 64 61 61 68 64 49 42 43 44 46 49 49 50 52 54 57 56 54 50 47 41 33 26 30 36 34 31 30 25 18 16 16 17 22 29 34 36 35 33 32 33 36 39 39 41 41 40 40 43 45 47 51 51 50 57 68 68 59 54 52 54 55 52 52 55 59 64 73 83 83 71 61
Wind_Speed
12 12 11 11 11 9 9 10 10 10 11 11 9 9 9 9 9 9 9 9 8 7 6 5 5 7 9 11 11 11 11 11 12 14 16 14 12 13 14 13 12 12 13 12 11 11 12 14 14 14 14 14 14 14 14 14 15 16 15 14 12 11 10 10 10 10 10 11 11 11 10 9 9 9 8 8 8 8 8 8 8 7 7 6 6 6 6 6 5 5 5 5 5 6 6 6 5
11 11 11 11 11 10 10 10 9 11 10 8 8 7 8 8 8 9 8 8 8 8 7 6 7 9 11 13 13 11 11 12 13 13 14 13 12 12 13 12 11 11 11 11 10 11 11 13 13 13 13 12 12 12 12 13 15 15 14 12 11 9 9 9 9 9 9 10 10 9 9 9 8 8 8 8 8 7 7 7 7 7 7 8 8 8 7 6 5 4 4 5 5 6 6 5 5
11 11 11 11 11 10 10 8 9 10 8 6 5 4 6 8 7 8 8 7 8 8 7 7 7 8 10 13 13 12 11 12 12 11 11 12 12 12 11 11 11 10 10 10 12 11 11 11 11 10 10 10 10 11 12 13 13 12 12 11 10 9 8 9 9 8 8 9 9 8 8 8 7 7 7 8 7 7 7 7 7 7 8 8 9 9 7 6 5 4 4 5 5 5 5 5 4
11 10 10 11 10 8 8 8 8 8 4 3 3 2 5 7 6 7 8 8 8 8 8 8 8 8 10 12 12 12 11 10 11 10 10 10 11 11 10 10 11 11 10 9 12 11 9 9 9 9 8 9 9 9 11 11 10 11 11 11 10 9 8 8 8 7 8 8 8 7 7 7 7 7 7 7 6 6 6 6 6 6 7 8 8 8 7 7 6 5 4 5 5 5 5 4 4
11 10 10 11 11 8 7 9 6 4 3 2 2 1 3 5 5 7 7 8 8 8 8 7 8 8 9 10 10 10 9 9 10 10 9 9 10 11 9 10 11 12 10 8 10 9 8 8 8 8 7 7 7 8 9 8 9 10 10 11 10 9 8 8 7 7 7 7 7 6 6 6 7 6 6 6 6 5 5 5 5 6 6 7 7 7 7 8 6 5 4 4 4 4 4 4 4
11 10 10 10 12 11 10 9 3 3 3 2 2 1 2 4 5 5 6 7 7 7 7 5 6 7 8 9 9 8 7 7 8 9 9 8 9 9 8 9 10 10 9 8 8 8 8 8 7 7 6 6 6 7 8 8 8 9 10 10 9 9 8 7 7 7 7 7 6 6 6 6 6 6 6 6 5 5 5 5 5 5 6 6 6 6 7 7 7 6 5 4 3 3 4 4 4
11 11 11 11 11 11 9 6 4 4 5 3 3 2 3 5 5 5 5 5 6 6 6 5 4 5 6 7 7 6 6 5 5 8 9 8 8 9 8 7 8 8 8 7 7 7 7 6 6 6 6 6 6 7 7 7 8 9 9 10 9 8 7 7 7 7 7 6 5 6 6 6 6 6 5 5 5 5 5 4 5 5 5 5 5 5 6 6 6 6 5 5 3 2 3 4 4
11 10 11 10 10 9 6 4 3 3 4 4 3 3 3 5 5 5 5 5 5 5 5 5 2 4 5 6 6 5 5 5 5 6 8 8 8 8 8 6 7 7 6 6 6 6 6 6 6 7 7 6 6 6 7 7 8 9 9 9 8 8 8 7 7 6 6 5 5 6 6 5 5 5 5 5 5 5 5 5 5 5 5 5 5 4 4 4 4 4 4 4 3 2 1 2 4
10 9 9 8 10 8 3 3 2 1 3 4 4 3 3 4 5 6 6 6 5 5 5 5 3 3 5 5 6 5 5 5 6 6 7 8 8 8 7 6 6 5 5 5 6 6 6 6 7 7 7 6 6 6 6 7 8 8 8 8 8 8 8 7 7 6 6 6 6 6 6 5 5 4 4 4 5 5 5 5 5 5 5 5 5 5 5 5 4 4 3 3 3 2 1 1 2
9 10 9 10 12 8 3 3 2 1 1 2 4 4 3 3 5 6 6 6 5 5 4 4 3 3 3 4 5 5 5 6 6 7 7 7 7 7 7 6 5 5 5 4 5 5 5 6 7 7 6 6 6 6 6 7 8 8 7 8 8 8 8 7 8 8 8 8 7 7 6 5 5 4 4 4 5 5 5 4 4 4 4 4 4 5 6 5 5 4 3 2 2 1 1 1 1
8 9 10 10 10 6 3 3 3 2 1 1 2 3 3 3 4 5 5 6 6 5 5 4 3 3 4 4 5 5 6 6 6 7 7 7 7 6 6 6 5 5 4 4 4 5 5 5 5 5 5 5 5 5 6 7 8 8 8 9 8 8 8 8 8 9 10 10 9 8 7 6 5 5 5 5 4 4 4 3 2 2 2 3 3 4 4 4 4 3 2 2 2 1 0 0 1
10 8 10 9 6 5 3 3 3 2 2 2 2 2 3 4 4 5 5 6 6 5 6 6 4 3 4 5 6 7 7 7 6 7 6 6 5 5 5 5 5 5 4 4 4 4 4 4 4 5 5 5 5 6 7 8 9 9 9 9 9 8 9 9 9 10 11 11 11 10 8 7 6 6 5 5 4 4 3 2 2 1 1 1 1 2 3 4 3 2 1 0 0 0 0 0 0
10 8 10 9 4 4 2 2 3 4 3 2 3 3 3 4 4 5 6 6 6 6 6 6 5 4 4 5 8 8 8 8 7 7 6 5 4 4 4 4 5 5 4 3 4 4 4 4 4 5 6 6 5 7 8 9 10 10 10 10 10 10 10 10 10 10 11 11 11 10 9 8 7 6 6 5 4 4 3 2 2 1 1 1 1 2 4 4 4 3 2 2 2 2 1 1 1
10 9 9 9 5 4 2 2 3 4 3 4 4 3 3 3 4 5 7 7 7 7 6 6 6 5 4 5 8 9 10 9 7 6 6 5 4 5 5 5 6 6 5 4 4 4 5 5 5 6 6 6 7 8 10 11 12 12 12 11 11 11 11 11 11 11 11 11 11 10 9 8 8 6 6 5 4 4 3 3 2 1 0 1 2 3 3 3 3 3 3 3 3 3 3 3 3
9 9 8 10 6 3 2 2 3 4 3 5 5 4 3 2 4 4 6 7 8 7 7 8 8 7 5 4 6 9 9 9 7 6 6 5 5 6 6 7 8 8 7 5 5 5 6 6 6 7 7 8 9 10 12 12 12 12 12 12 12 12 12 12 12 12 12 11 11 11 10 9 9 8 7 6 5 5 4 4 3 2 0 1 1 2 2 2 3 2 2 2 3 4 4 4 3
7 8 8 9 5 2 1 3 3 3 4 5 5 5 4 2 3 4 5 7 7 8 9 9 9 8 6 5 5 7 8 8 7 7 7 6 6 6 7 7 8 8 7 6 5 5 7 7 7 8 9 10 10 12 13 12 12 12 12 12 12 13 13 13 13 12 12 12 12 12 11 11 10 9 9 8 7 7 7 6 5 4 3 3 3 3 3 3 3 3 2 2 2 3 3 3 3
7 8 8 7 3 3 2 4 3 3 3 4 5 6 5 4 3 4 5 7 7 9 9 9 9 8 7 7 5 6 7 8 8 8 8 7 6 6 6 7 8 8 7 6 5 6 7 8 9 9 9 10 11 12 13 12 12 12 12 12 13 13 13 13 13 12 12 12 12 12 12 12 11 10 10 10 9 9 9 9 8 8 7 7 7 7 6 6 5 5 4 3 2 2 2 2 2
6 6 9 9 3 2 4 5 4 4 4 4 5 6 6 5 4 4 5 6 7 8 8 8 9 8 9 9 7 6 7 8 8 9 9 8 6 6 7 7 8 9 9 8 7 7 8 8 9 10 10 11 11 12 13 12 12 12 12 12 13 13 13 13 12 12 12 12 12 12 12 11 11 11 10 10 10 10 10 10 10 10 10 10 10 9 9 8 8 7 7 6 4 3 2 2 2
7 5 6 7 3 2 4 5 5 5 5 5 5 6 6 6 6 5 4 5 5 5 6 7 8 8 10 10 9 7 8 9 9 9 8 8 7 6 7 8 8 9 9 9 8 8 8 9 9 10 11 11 11 12 13 12 12 12 12 12 12 12 12 12 12 11 11 11 11 11 11 11 11 11 11 11 11 11 10 10 10 11 11 11 11 11 11 11 11 10 9 8 7 6 5 5 5
7 5 3 3 4 3 3 5 6 6 6 5 5 6 6 6 6 6 5 5 5 5 5 6 7 8 10 10 10 9 8 10 10 9 8 8 7 7 7 8 8 9 10 10 10 10 10 10 10 10 11 11 11 12 12 12 12 11 11 11 11 11 11 11 11 10 10 10 11 11 11 11 11 11 11 11 11 11 10 10 9 10 10 10 10 10 11 12 11 10 10 9 9 9 9 9 8
7 6 4 2 3 2 3 5 6 6 7 6 6 6 6 6 6 7 7 6 5 5 5 6 6 7 9 9 9 10 9 10 11 11 10 8 7 7 7 8 9 9 10 11 10 11 12 12 11 11 11 11 11 11 11 11 11 10 10 10 10 10 10 10 10 10 10 10 10 10 10 10 10 10 11 11 11 11 10 10 9 10 9 10 10 10 11 12 11 10 11 10 10 10 10 10 10
8 7 6 1 2 3 3 5 7 7 8 7 7 7 6 6 6 7 8 6 5 5 5 6 6 6 7 8 8 9 9 10 11 11 11 10 9 9 9 9 9 10 11 11 11 11 12 12 12 11 11 11 11 10 10 10 10 9 9 9 9 9 9 9 9 10 10 10 10 9 10 9 10 10 10 11 11 11 11 10 9 9 9 9 10 10 11 11 11 11 11 11 11 11 11 11 11
10 8 7 5 6 6 6 7 8 8 8 8 7 7 6 6 5 7 8 7 6 5 4 6 8 7 7 8 8 9 9 10 10 11 11 10 10 10 10 10 11 12 12 12 12 12 12 12 12 11 11 10 10 10 9 9 9 9 8 8 8 8 8 8 8 9 9 9 9 9 9 9 9 9 10 10 11 11 11 10 10 9 10 11 11 10 10 10 10 10 10 10 11 11 11 11 11
13 10 8 8 8 8 8 8 8 9 9 8 8 7 6 5 5 6 8 7 7 7 5 5 8 8 8 8 9 10 10 11 11 11 11 11 11 11 11 12 12 12 12 12 12 13 13 12 11 11 10 10 9 9 9 8 8 8 8 8 8 8 8 8 8 8 8 8 8 8 8 8 9 9 9 10 10 11 11 11 10 10 10 11 10 9 9 9 10 10 10 10 10 10 11 11 11
14 13 9 8 9 9 9 9 10 10 9 9 8 7 6 6 6 6 7 6 7 7 6 6 8 9 9 9 10 11 11 11 12 11 12 12 12 12 12 13 13 12 12 12 13 13 12 11 11 10 9 9 8 8 8 8 8 8 8 8 8 8 7 7 7 7 7 7 7 8 8 8 8 8 8 9 9 10 10 10 10 10 10 9 8 9 9 8 9 10 10 10 10 10 10 10 10
9 14 12 10 10 9 10 10 10 10 10 10 9 7 7 6 5 6 7 6 7 7 7 7 8 9 10 9 10 10 10 10 11 11 12 12 13 12 13 13 13 13 12 12 12 12 12 11 10 9 9 8 8 8 8 8 7 8 8 8 8 8 8 7 7 6 6 6 6 7 7 7 7 6 6 7 8 8 8 9 8 9 9 8 9 9 9 9 10 11 10 9 10 10 10 10 10
8 13 15 14 12 11 12 11 10 10 11 10 9 8 7 6 6 6 6 6 7 8 8 9 8 9 10 10 10 10 10 10 10 11 12 13 13 13 13 13 13 12 13 12 12 11 11 10 9 9 8 8 7 7 7 7 7 7 7 7 7 7 8 7 7 6 5 5 5 5 6 6 6 5 6 6 7 7 8 8 8 8 8 8 10 9 9 11 11 11 10 9 10 10 10 10 11
13 14 15 14 13 12 12 12 12 11 11 10 10 8 8 7 6 6 6 6 7 7 7 8 8 7 8 10 10 10 11 11 10 11 12 13 13 13 13 12 12 12 12 12 12 11 10 9 9 8 7 7 7 6 7 7 6 6 6 6 6 6 6 6 6 5 5 4 4 4 5 5 5 5 5 5 6 7 7 7 7 7 7 9 10 9 10 10 10 9 9 9 10 10 11 11 11
14 14 15 14 13 11 11 13 13 12 11 11 10 9 8 8 7 7 7 6 7 7 7 7 8 7 7 9 9 9 10 11 11 11 12 13 13 13 12 12 12 12 12 11 11 10 10 9 8 7 7 6 6 6 6 6 5 5 4 4 4 4 5 5 5 4 4 4 3 4 4 4 4 4 5 5 6 6 7 7 7 7 8 9 9 9 10 9 9 9 10 10 10 10 10 10 11
16 15 15 14 12 10 12 13 13 12 12 11 11 11 9 9 9 8 7 7 7 7 7 7 8 8 8 8 8 8 10 10 11 11 12 12 13 12 12 12 12 11 11 11 10 10 9 8 7 6 6 5 5 5 5 5 4 3 3 2 2 3 3 3 3 3 3 3 3 3 4 4 4 5 5 5 6 6 6 7 8 9 9 9 10 10 10 10 10 10 11 10 10 10 10 10 10
18 17 16 15 12 11 14 13 14 13 11 11 12 11 10 11 11 9 9 7 7 7 7 8 8 8 8 8 8 7 8 10 10 11 11 12 12 12 12 11 11 11 11 10 10 9 8 7 6 6 5 5 4 4 4 4 3 2 1 1 1 1 1 1 2 2 2 2 3 3 3 4 4 4 5 5 5 6 6 7 8 9 9 10 10 10 10 10 11 10 11 11 11 11 10 10 10
21 19 15 15 12 12 15 13 15 14 12 12 13 11 8 11 12 11 10 9 8 8 8 8 8 8 9 9 8 8 8 9 9 10 11 11 11 11 11 11 11 11 10 10 10 9 8 7 6 6 5 4 4 3 3 3 2 1 0 1 2 2 2 1 0 0 0 1 2 2 3 3 4 4 4 5 5 6 7 7 8 8 9 10 10 10 10 11 11 11 12 12 12 12 12 11 10
23 20 15 17 14 13 17 15 15 16 14 14 14 13 10 11 13 13 13 11 10 9 8 8 8 8 9 9 9 9 8 9 9 10 11 11 11 11 11 11 11 10 10 10 9 9 8 8 7 6 5 5 4 3 3 2 1 1 2 3 3 4 4 3 2 1 1 1 2 2 3 3 4 4 4 4 5 6 7 8 8 8 9 10 10 11 11 12 12 13 13 13 14 13 13 12 11
23 20 18 19 14 14 19 15 16 19 16 16 16 15 13 13 14 14 14 13 11 10 9 9 9 9 9 10 9 9 9 9 9 10 10 11 11 11 11 11 11 10 11 10 10 9 9 8 8 7 6 5 5 4 3 3 3 4 4 4 4 4 4 4 3 2 1 2 2 2 3 3 4 4 4 4 5 6 7 8 9 9 10 10 11 12 12 13 13 14 14 15 15 15 15 14 13
21 19 20 20 14 14 19 17 17 19 17 17 18 17 16 15 14 14 16 14 13 12 11 10 10 10 9 10 10 10 9 9 9 9 10 10 10 10 10 10 10 10 11 10 10 10 10 9 8 8 7 6 6 5 5 5 5 5 5 5 5 5 4 3 3 2 2 2 2 3 4 4 4 5 5 6 6 7 8 8 9 11 11 12 12 13 14 14 15 15 16 16 16 16 16 16 15
20 19 20 19 14 15 18 19 19 19 20 19 19 19 18 17 14 14 16 16 15 14 12 11 11 10 10 10 10 10 10 10 10 11 11 11 11 11 10 10 10 10 10 10 10 11 11 10 9 9 8 7 7 7 7 7 6 7 7 6 6 5 4 3 3 2 2 2 3 3 3 4 5 6 7 7 7 8 9 10 11 12 13 13 14 15 15 16 17 17 17 17 17 17 17 17 17
20 18 20 19 16 15 15 18 21 20 22 21 19 20 20 19 16 15 17 17 16 16 14 13 12 12 11 10 10 9 9 10 10 11 11 12 12 12 11 11 11 11 11 11 11 11 11 10 10 10 10 9 9 9 8 8 8 7 7 7 6 5 3 3 3 2 2 2 2 3 4 5 5 7 8 8 9 10 11 12 13 14 15 15 16 16 17 17 17 18 19 19 19 18 18 18 17
21 19 20 20 18 16 15 18 24 23 22 22 22 21 21 20 18 16 17 17 17 17 15 14 14 13 12 11 11 10 9 8 8 9 10 11 11 12 12 12 12 11 11 11 11 11 11 11 11 11 11 11 10 10 9 9 8 8 8 7 6 5 4 4 4 3 3 3 4 5 5 6 7 8 9 10 11 12 13 14 15 16 17 17 17 17 17 18 18 19 19 20 20 19 19 19 18
25 21 21 21 18 17 17 18 25 26 23 24 23 22 22 21 19 19 19 19 18 17 17 16 15 14 14 13 12 11 10 9 8 8 8 9 9 10 11 12 12 12 12 12 11 12 12 12 12 12 12 12 11 10 10 9 9 9 8 7 7 6 5 5 5 5 5 6 6 7 8 8 9 9 10 12 13 14 15 17 17 17 18 18 18 18 19 19 19 19 19 20 20 20 20 19 19
29 25 22 21 18 18 19 21 26 26 21 24 24 22 22 22 21 22 20 20 19 18 18 17 17 16 15 15 14 13 13 12 11 10 9 8 7 8 9 10 11 12 12 13 13 13 13 13 13 13 13 12 12 11 10 10 9 9 8 8 8 7 7 7 7 7 8 8 9 10 10 11 12 12 13 14 15 16 17 18 18 18 18 18 18 19 19 19 19 19 20 20 20 20 20 20 19
31 29 25 21 20 20 20 23 28 27 25 26 24 23 24 24 24 23 22 21 20 20 20 19 18 18 17 15 15 14 14 13 12 12 11 10 9 9 9 9 9 10 11 12 13 14 14 14 14 14 13 13 12 11 11 10 10 9 9 9 9 8 8 9 9 10 10 11 12 12 13 14 14 15 16 16 17 17 18 18 17 17 17 17 18 18 19 19 19 19 20 20 20 20 20 20 20
31 31 29 24 21 22 21 22 28 29 28 28 26 26 26 26 25 23 23 23 22 21 21 21 20 19 17 16 16 15 14 14 13 13 13 12 12 11 10 9 9 10 11 11 12 13 13 14 14 15 14 14 13 12 11 11 10 10 10 10 10 10 10 11 11 12 12 13 14 14 15 16 16 17 17 16 16 16 16 16 15 15 16 17 18 18 18 18 18 19 19 20 20 20 21 20 20
32 31 30 27 25 24 21 22 28 29 28 28 30 29 25 26 26 24 25 25 23 23 22 22 21 20 18 18 17 17 16 16 15 15 14 13 13 13 12 12 12 11 12 12 11 12 12 13 14 15 15 14 14 13 13 12 12 12 12 12 12 12 12 13 13 14 14 14 15 15 16 16 16 16 16 15 15 15 15 15 15 15 15 16 17 17 18 18 18 19 19 20 20 20 20 21 20
35 31 29 28 28 26 22 24 29 29 27 28 31 30 27 28 26 24 26 26 25 26 24 23 22 21 20 19 18 18 18 18 17 16 16 15 15 14 14 14 13 13 13 12 12 13 13 13 14 14 15 14 14 14 14 14 14 13 13 13 13 13 13 14 14 15 15 15 15 15 15 14 13 13 14 14 14 14 14 14 14 14 14 15 15 16 17 17 18 18 19 19 19 20 20 20 20
34 31 30 27 28 29 26 26 28 27 28 28 29 30 31 31 27 23 25 27 28 27 26 25 24 24 23 22 20 19 19 19 19 18 17 17 16 16 16 16 16 16 14 13 14 16 15 14 14 14 14 15 15 15 14 14 14 14 14 13 13 13 14 15 15 15 15 14 14 14 13 12 11 12 12 13 13 14 15 15 15 14 14 14 15 16 16 17 17 18 18 19 19 19 20 20 20
33 33 32 25 25 27 28 28 26 25 29 26 24 27 32 32 27 25 28 29 28 28 28 26 25 25 25 24 22 21 21 21 19 19 19 19 19 18 18 18 18 17 16 16 16 17 16 15 15 15 15 15 15 15 15 15 15 14 14 14 14 14 15 16 16 15 14 14 13 12 11 11 10 11 12 12 14 15 15 15 15 15 15 16 17 17 17 17 17 18 18 19 19 20 20 20 20
36 38 34 24 24 29 30 30 27 27 33 29 24 26 30 31 29 29 29 27 26 28 28 25 24 25 24 24 24 23 22 21 20 20 20 20 21 20 20 19 18 18 17 17 17 17 17 17 17 17 16 15 15 15 16 16 16 15 15 15 14 15 16 16 16 15 14 13 12 12 11 10 11 12 13 14 14 15 15 16 16 16 17 19 19 20 20 20 20 20 20 20 20 21 21 21 21
41 42 37 28 29 32 30 30 31 34 36 31 26 27 30 31 32 32 28 24 26 28 26 24 24 23 23 24 24 22 22 19 17 18 19 21 22 21 21 19 19 18 17 17 18 18 18 18 18 18 17 16 15 16 17 17 16 16 15 15 14 15 15 16 15 14 13 12 12 11 11 11 12 13 14 15 15 16 17 17 18 19 20 21 22 22 22 22 23 23 24 24 24 23 23 22 23
45 45 40 33 34 33 31 33 34 36 35 28 25 26 31 35 32 31 30 26 26 28 26 26 26 21 19 24 24 23 23 18 14 16 18 19 20 20 20 20 19 18 17 18 18 18 18 19 19 19 18 17 17 17 17 17 16 16 15 14 14 15 15 15 15 14 13 12 12 11 12 12 12 14 15 16 17 18 19 20 21 22 23 24 24 24 24 25 25 26 26 27 27 26 26 26 25
47 47 42 39 39 36 34 34 34 35 33 29 27 26 32 39 33 28 31 28 22 24 27 28 25 17 14 22 26 26 25 19 12 14 17 17 17 17 17 18 18 18 18 18 18 17 18 19 19 20 20 20 19 18 18 17 17 16 15 15 15 15 16 15 15 14 14 13 12 12 13 13 13 14 16 17 18 20 21 21 22 23 24 25 25 26 27 28 28 28 28 28 28 28 28 29 28
49 47 45 47 47 41 35 34 36 35 30 28 30 33 36 35 28 26 31 31 26 24 26 26 20 15 17 21 21 22 23 19 12 9 12 14 15 16 15 15 15 16 16 16 15 16 17 18 19 20 21 20 20 19 19 19 18 17 15 15 16 16 16 16 15 15 14 13 13 14 14 15 16 17 18 19 20 21 22 22 22 23 24 25 26 28 29 30 31 31 30 30 30 29 28 29 30
50 48 48 53 53 45 36 33 34 32 30 30 30 35 39 32 27 30 32 33 35 30 26 24 18 17 23 22 18 19 20 17 10 7 10 12 13 15 14 13 13 13 13 12 12 13 14 15 17 18 19 20 19 19 19 20 19 18 17 17 17 17 17 16 16 16 15 14 14 15 16 17 18 19 20 21 22 24 24 23 22 23 25 26 27 29 30 32 32 32 32 32 31 30 29 29 31
50 49 50 52 52 46 40 35 32 28 31 35 31 31 34 31 34 39 34 32 35 30 24 22 20 22 24 22 21 21 18 15 10 8 11 12 13 14 13 12 12 12 11 10 10 10 11 12 13 14 16 16 17 19 20 21 21 20 20 19 19 18 17 17 16 16 15 14 14 15 17 18 19 20 21 22 22 24 24 23 23 24 26 27 29 31 31 32 33 33 33 32 30 29 29 28 28
48 48 49 51 52 48 42 39 36 34 34 35 32 32 31 30 34 38 35 35 35 31 26 22 21 24 25 25 25 22 19 17 14 13 13 14 15 14 12 11 11 12 12 11 10 10 10 10 11 12 13 14 16 19 21 22 22 22 21 21 20 19 18 17 17 16 15 14 15 16 17 19 19 20 20 21 22 23 23 23 23 24 27 28 30 32 32 31 33 35 34 32 30 28 28 26 25
50 47 45 50 57 53 45 43 41 38 39 36 30 31 33 33 34 34 33 35 35 32 31 27 24 24 24 26 27 25 22 20 17 17 16 14 14 13 11 12 12 13 13 12 12 11 10 9 10 11 12 13 16 18 19 20 21 22 22 21 20 18 18 17 17 16 16 15 16 17 18 19 20 21 21 22 23 23 23 22 22 25 28 29 30 33 33 32 34 36 34 32 30 27 26 26 26
53 50 43 43 53 54 48 48 47 39 37 37 33 32 34 33 32 33 32 29 31 33 33 31 29 23 19 23 26 25 24 21 19 20 18 15 13 12 12 13 14 15 14 14 13 12 11 10 10 11 12 14 14 15 17 18 19 20 20 20 18 17 17 17 16 16 16 17 17 18 19 21 22 22 22 23 23 24 24 23 24 26 28 28 30 34 35 33 34 35 33 30 28 26 25 26 27
52 56 52 43 43 48 49 51 49 43 39 37 35 35 34 29 26 29 31 26 26 30 30 29 26 21 20 24 27 25 24 23 21 20 20 19 17 14 14 15 17 17 16 15 14 14 13 11 10 11 13 14 14 14 15 16 17 17 17 17 17 16 17 16 16 17 17 18 19 19 21 23 23 23 23 23 23 24 26 27 26 27 28 29 30 33 34 32 31 34 33 29 27 26 26 26 27
47 54 58 53 43 40 46 49 46 45 46 41 37 34 31 26 23 26 33 31 25 23 26 27 25 25 27 22 22 24 25 24 22 21 21 22 21 19 18 18 19 19 17 16 16 15 15 12 11 11 12 14 15 15 15 15 15 15 15 16 16 16 16 16 16 17 18 19 20 20 22 23 23 24 24 25 25 25 27 28 26 27 29 30 31 32 32 28 27 31 32 29 29 29 29 28 28
Wind_Direction
127 132 130 125 111 104 101 83 82 76 65 71 79 84 88 92 93 92 94 97 96 95 95 91 104 121 129 135 137 136 136 134 128 121 120 118 112 114 115 115 117 116 114 112 110 106 103 106 103 97 97 100 102 103 102 99 97 97 100 104 106 107 109 112 117 121 124 122 115 108 105 100 96 94 95 92 90 89 87 83 77 74 73 71 73 77 79 83 88 93 105 108 97 87 84 87 93
128 131 131 121 109 101 90 81 77 65 52 62 77 93 104 103 100 97 95 97 96 96 100 104 113 125 136 139 137 140 142 138 129 121 118 117 112 111 113 114 115 110 112 113 107 102 102 102 96 93 100 103 101 95 89 89 92 97 103 107 109 110 111 116 123 123 119 110 101 99 97 94 93 93 91 89 86 83 82 79 76 74 70 68 67 70 77 86 93 101 110 114 106 95 88 90 98
123 125 123 110 105 100 95 91 74 62 51 53 69 95 106 105 109 109 105 99 96 100 102 109 117 122 135 136 134 141 144 135 125 119 115 116 112 108 110 110 111 107 106 108 104 101 95 94 93 92 96 93 87 84 85 89 93 99 104 108 112 112 116 121 120 113 102 95 92 93 91 91 90 88 86 84 80 77 76 76 76 76 73 69 69 73 80 93 104 114 116 117 116 108 98 94 102
123 126 115 102 105 105 98 89 73 70 74 75 77 85 103 109 119 121 118 107 99 100 102 111 118 116 123 129 133 139 143 133 121 117 112 109 105 102 104 107 110 110 107 106 105 103 91 85 87 86 83 82 83 86 94 97 96 100 103 107 112 112 114 111 103 96 89 88 88 87 87 88 87 84 82 78 76 73 73 75 79 81 79 74 73 76 79 89 103 115 116 115 123 127 118 106 108
124 126 116 104 102 106 89 71 67 87 97 125 110 95 119 123 129 132 128 116 106 103 103 109 119 120 120 126 132 133 137 133 125 118 109 103 100 98 99 104 110 111 108 106 106 100 88 84 84 83 83 87 89 95 98 95 94 96 101 107 108 105 102 95 89 87 85 86 84 83 84 85 84 81 76 76 74 72 73 76 82 82 80 78 75 75 74 76 81 93 103 107 122 139 142 131 121
121 118 116 107 95 92 86 74 90 126 115 145 132 147 159 143 139 136 135 124 113 108 109 114 124 126 123 125 126 124 128 131 129 121 110 102 98 96 96 101 102 102 102 100 99 90 84 86 86 85 85 85 86 92 93 88 89 92 98 99 95 94 89 86 88 86 83 82 82 85 86 86 84 81 79 79 77 76 75 75 77 76 75 76 75 75 74 73 72 73 80 90 105 140 158 159 148
123 119 110 101 89 77 75 84 113 131 130 132 136 167 171 158 150 142 147 140 124 114 113 116 132 133 125 127 128 124 121 119 120 119 115 108 101 97 95 99 93 91 96 92 89 84 81 83 83 82 78 75 77 81 84 86 86 86 88 84 81 84 83 83 84 81 80 82 89 93 93 92 89 87 87 84 83 81 79 75 70 68 68 70 74 76 79 80 81 77 74 80 84 119 167 176 176
129 128 113 103 90 69 65 93 105 127 131 122 130 156 173 169 157 153 156 156 145 132 123 117 140 153 137 136 138 128 117 111 104 106 111 108 102 99 100 100 93 88 85 81 82 79 77 78 80 80 74 70 72 75 76 77 75 75 77 76 79 82 81 81 79 79 84 92 98 101 104 102 99 95 92 90 89 86 82 75 69 67 64 64 68 74 80 85 87 87 84 84 87 94 152 180 195
128 123 111 100 86 76 87 122 108 119 128 127 132 140 166 176 163 159 153 156 154 148 140 129 152 164 148 148 142 126 113 107 98 99 103 103 101 102 106 104 97 91 84 79 79 79 80 80 80 79 74 68 67 68 67 66 69 70 73 78 81 81 80 80 83 89 93 97 100 104 108 108 104 99 95 94 89 86 83 76 72 71 69 63 65 69 69 72 75 80 89 96 102 104 112 152 201
126 116 113 97 83 83 97 128 160 152 141 144 141 146 158 180 176 166 158 156 153 155 155 139 153 162 159 164 147 129 118 108 96 95 98 101 103 106 109 108 104 99 99 94 84 84 82 79 81 81 76 72 68 67 67 68 70 71 77 80 79 80 86 93 97 96 95 96 101 106 109 109 107 102 95 90 86 87 88 81 76 74 78 72 66 64 61 59 59 66 77 90 104 123 146 143 168
125 118 116 95 88 107 104 129 174 176 189 175 157 173 165 183 194 185 177 164 162 169 159 143 156 168 177 189 168 151 139 121 103 95 95 99 103 106 111 114 112 108 107 103 95 91 89 88 89 89 87 81 76 73 73 73 74 75 78 80 84 92 98 101 99 95 93 93 97 101 104 105 100 94 85 79 81 87 92 87 81 80 82 76 66 55 45 38 36 47 64 75 88 102 154 170 167
121 116 111 96 102 127 118 144 178 203 200 191 173 198 192 185 199 206 197 176 177 179 157 152 175 178 183 207 189 171 159 141 123 110 104 103 106 110 117 119 118 114 109 105 104 100 103 106 94 88 89 82 77 77 78 79 79 80 83 89 97 100 100 97 93 92 91 90 92 95 96 96 92 86 80 78 80 83 90 93 94 92 67 54 53 26 7 360 359 356 355 50 99 116 159 299 302
117 114 108 103 117 119 124 158 187 225 203 204 194 194 209 192 197 208 203 194 192 188 171 166 179 181 185 213 201 182 173 163 149 133 123 120 124 126 123 128 131 126 124 126 118 109 109 109 92 85 85 83 83 88 90 91 90 90 92 96 97 95 93 90 89 89 88 86 86 86 86 84 83 81 79 78 76 77 81 88 94 89 34 10 330 321 326 326 324 315 298 260 254 258 253 261 276
116 118 111 105 112 107 124 159 207 235 213 222 217 184 200 210 207 204 204 205 198 189 187 177 174 184 190 208 206 194 183 177 167 153 144 140 144 142 140 151 152 141 144 151 132 122 120 115 109 105 103 102 102 104 103 99 96 94 92 90 89 87 87 85 84 83 82 81 79 77 76 75 74 72 72 70 68 68 71 77 83 83 332 277 282 293 307 316 312 305 297 273 260 263 270 275 272
111 114 118 107 106 104 130 170 210 230 218 230 229 196 179 215 218 201 198 200 201 192 186 181 176 188 195 207 216 209 195 185 179 167 155 147 150 148 153 162 155 147 153 153 139 135 129 122 123 120 116 114 113 111 106 99 94 89 86 84 84 83 81 80 78 78 77 76 76 75 74 73 72 71 70 69 68 67 71 77 82 92 99 288 297 312 332 337 332 325 315 291 269 268 276 282 279
112 116 113 95 96 102 178 208 215 233 216 219 230 211 167 175 208 194 187 186 192 185 179 180 181 188 193 202 219 222 207 189 180 166 149 142 147 149 155 159 150 147 149 144 139 136 130 125 123 118 113 110 110 107 101 96 91 86 84 84 82 81 78 77 77 77 77 77 78 77 77 76 75 75 74 73 72 72 73 76 77 74 67 53 47 41 36 28 21 18 13 357 310 290 293 297 297
133 131 108 80 96 128 205 216 214 247 225 205 217 208 166 156 185 182 177 170 172 176 180 184 184 185 188 190 195 219 213 190 175 157 144 139 146 153 154 155 148 145 141 139 138 132 130 127 121 117 110 106 104 101 98 95 91 88 87 85 82 80 78 78 79 79 79 79 80 79 78 76 75 75 75 73 70 70 68 67 68 65 62 59 56 55 54 52 51 52 54 52 34 4 332 317 316
147 130 101 80 70 159 204 209 215 236 224 199 203 205 179 162 172 177 170 167 171 176 183 186 184 183 186 183 170 199 213 190 170 152 143 142 150 158 155 153 148 145 144 143 141 134 129 125 119 114 108 104 103 99 97 96 94 91 88 84 81 79 80 81 81 81 81 80 79 78 77 76 75 73 71 70 67 65 64 63 63 62 61 59 58 58 58 58 59 60 64 66 63 52 32 13 5
162 144 105 97 107 203 213 216 225 225 218 199 196 207 192 173 172 175 172 169 171 171 175 184 189 187 183 178 162 176 206 193 169 151 142 141 148 155 154 154 151 146 146 145 141 135 128 122 118 111 108 107 104 101 99 97 93 90 88 85 82 81 82 83 84 84 81 79 77 76 76 75 74 73 70 68 65 62 61 62 63 63 61 60 59 58 58 58 57 58 61 63 67 66 62 61 53
181 161 117 121 164 205 225 225 228 222 219 203 195 204 197 186 177 173 175 173 169 165 170 184 195 191 179 175 166 166 192 192 170 152 139 135 139 148 155 155 150 145 143 145 143 137 132 129 125 118 114 110 105 102 99 96 92 89 88 85 83 83 83 85 87 85 81 78 77 75 75 75 74 73 70 67 64 60 57 57 60 63 63 61 58 58 59 57 55 57 59 59 60 62 62 64 64
199 179 157 96 129 189 230 221 224 220 218 211 202 204 201 194 182 174 173 174 179 177 181 186 195 196 181 177 169 164 181 184 166 151 139 137 139 144 152 150 147 143 140 143 142 136 133 131 128 122 116 111 107 103 99 95 92 90 88 86 85 84 85 86 86 84 82 81 79 77 75 74 74 72 69 67 64 60 56 53 54 56 59 61 58 57 61 58 54 54 55 53 53 55 55 59 61
202 198 203 177 148 198 238 224 221 217 216 218 209 208 209 199 186 177 170 169 179 183 194 190 189 195 183 177 167 159 171 172 160 148 138 141 146 145 145 146 146 141 138 138 136 132 129 128 125 121 116 112 106 100 96 92 90 89 87 86 86 85 85 85 84 84 84 84 83 80 77 74 72 71 69 67 64 61 56 52 53 52 52 56 54 55 61 59 52 51 53 53 54 56 57 58 59
207 207 219 221 203 211 230 224 217 215 212 216 214 211 212 200 192 182 175 174 175 177 189 187 186 189 175 171 165 153 157 158 153 145 138 139 144 146 147 149 147 140 137 135 133 132 129 128 125 121 116 110 104 98 93 90 89 89 87 86 86 86 85 83 83 84 86 87 85 82 79 76 73 70 66 64 61 58 53 48 48 48 47 47 44 45 54 62 61 56 55 56 57 58 57 56 55
214 221 226 219 212 214 227 227 216 212 208 208 211 212 210 200 194 184 180 181 177 172 167 173 182 183 168 162 165 156 151 150 148 143 138 136 138 143 148 148 146 141 139 136 135 135 133 131 127 123 116 109 103 98 94 92 90 89 87 85 84 84 84 83 83 85 88 88 87 85 81 79 75 68 61 57 54 52 49 45 44 43 44 47 42 38 41 52 63 59 53 51 50 51 52 50 47
216 225 228 224 222 222 230 229 215 206 202 202 204 207 205 199 198 186 181 181 178 172 157 159 171 175 170 161 164 162 153 151 150 146 141 140 141 143 146 147 146 144 142 141 141 138 135 133 128 123 117 112 106 101 98 94 92 89 87 83 82 82 82 82 82 85 89 87 86 86 83 79 74 68 62 57 49 45 43 42 43 41 39 44 45 41 37 36 50 53 46 40 35 36 40 40 38
245 238 225 223 226 229 226 220 213 202 198 199 197 202 202 196 198 188 183 180 176 173 159 157 163 166 168 163 163 159 150 150 150 146 145 145 146 146 147 149 148 148 147 145 143 141 139 135 131 126 120 116 109 104 102 96 92 88 86 83 80 80 80 81 84 87 88 85 83 84 82 77 69 62 57 56 48 38 39 40 42 45 41 43 45 42 39 32 36 43 38 30 25 24 26 26 26
240 235 222 222 221 227 222 210 203 198 196 197 191 196 200 191 192 188 188 182 169 170 166 161 156 157 164 165 161 152 145 146 147 144 144 146 148 149 150 152 152 151 152 149 147 146 142 138 134 129 122 116 110 106 101 96 92 88 85 83 80 79 79 81 85 89 89 85 84 82 77 69 62 51 43 46 44 33 34 35 33 41 41 41 39 34 40 36 32 36 34 27 22 18 17 16 16
212 213 217 225 224 228 224 209 197 194 195 193 185 187 192 189 195 195 189 182 167 162 166 162 149 143 156 166 160 147 142 142 142 141 144 147 150 152 153 154 155 155 154 153 152 149 144 142 136 129 124 117 111 107 102 97 93 92 89 86 83 81 80 82 86 89 91 88 83 76 67 60 54 46 39 33 38 32 28 31 28 31 33 35 31 22 32 34 27 28 29 29 23 14 13 12 10
213 208 212 221 227 232 229 216 199 194 197 189 180 181 190 191 194 198 186 178 175 162 156 159 153 144 149 164 162 144 139 139 138 140 144 147 150 154 155 157 158 159 159 157 156 152 149 145 140 135 128 121 114 107 103 100 98 95 94 92 89 84 82 83 85 86 87 83 72 63 56 51 44 36 34 26 28 27 20 20 18 20 23 24 22 14 18 21 18 16 16 22 19 10 10 9 6
212 211 212 216 224 237 239 225 205 197 197 189 179 181 193 199 197 198 188 175 177 165 150 153 159 156 150 157 159 146 142 141 141 144 146 150 153 156 158 161 163 164 163 162 160 158 157 152 146 145 136 125 116 108 104 103 102 97 92 91 85 83 86 86 84 84 81 71 60 51 42 38 34 26 28 26 21 18 12 10 11 12 12 12 11 7 4 3 7 8 5 8 7 2 4 2 1
211 212 215 219 215 235 242 223 208 204 196 192 185 185 198 206 205 202 195 185 180 171 157 151 153 159 156 153 156 152 151 150 149 149 149 153 155 160 162 164 166 167 167 167 168 166 163 161 157 154 147 136 126 119 114 108 106 103 89 62 28 31 64 85 87 85 73 65 57 43 31 27 23 20 22 23 16 10 4 3 8 7 3 4 2 358 356 352 355 358 354 353 352 351 352 351 351
212 210 218 231 215 227 244 222 212 212 200 199 192 188 206 214 213 209 202 197 189 176 166 159 153 156 157 157 160 158 161 161 158 155 154 158 159 163 167 167 170 171 173 173 174 176 171 171 171 167 164 155 146 140 135 126 121 122 299 301 302 304 314 325 347 88 50 31 42 24 14 24 21 14 12 12 7 3 358 358 4 2 357 356 352 349 350 348 348 349 346 345 344 343 341 339 338
215 211 214 234 216 215 240 227 217 220 206 205 201 193 204 219 217 213 210 205 201 187 174 169 162 160 160 161 165 164 168 169 169 165 163 166 167 170 173 173 177 177 181 184 182 183 183 184 184 182 183 177 173 166 163 174 201 257 272 282 288 293 298 303 303 305 323 343 11 349 340 11 17 7 3 7 4 357 353 350 350 352 353 349 343 342 343 341 341 341 339 339 339 338 334 330 329
216 218 213 226 215 216 244 236 218 224 214 208 210 204 205 219 218 215 218 213 210 202 186 181 172 168 167 168 171 169 172 174 175 176 173 174 174 177 181 181 185 186 190 194 193 194 196 198 196 196 198 193 195 196 199 221 244 263 271 275 279 282 286 292 297 311 336 335 350 333 331 357 2 349 346 351 354 346 342 339 336 339 343 339 333 332 332 332 331 332 332 333 334 334 331 327 325
212 225 224 224 211 217 247 255 231 221 220 217 216 213 211 220 219 215 223 219 215 212 199 194 185 175 172 172 176 175 177 178 177 181 181 183 184 185 188 190 192 195 201 204 204 208 208 209 208 208 211 208 210 217 222 234 250 264 269 270 273 273 275 285 291 308 324 323 335 333 333 341 335 330 332 333 334 331 327 325 326 330 330 325 323 323 324 324 324 325 326 326 328 329 327 326 324
207 223 233 229 216 218 236 254 248 221 220 225 217 217 216 220 222 216 222 222 217 216 207 202 195 185 177 173 176 179 182 183 183 187 187 190 192 194 196 198 201 202 207 213 214 217 218 217 219 219 220 220 221 225 230 240 251 262 267 267 269 269 270 278 284 294 307 314 323 322 324 326 323 324 326 327 326 325 324 321 323 323 318 314 315 316 317 318 319 320 320 321 322 323 323 323 323
205 217 235 234 223 232 235 243 250 227 216 223 218 217 218 218 221 217 220 222 217 216 212 207 201 193 186 178 176 178 183 187 190 193 195 198 198 201 203 203 207 209 211 216 219 223 225 224 224 226 227 227 227 229 234 243 251 259 263 262 260 258 261 265 269 276 281 292 301 304 309 312 315 317 317 320 322 323 324 322 322 317 311 309 309 309 310 312 313 314 315 315 316 318 319 320 319
204 213 232 235 222 224 229 239 254 239 216 221 220 217 219 217 216 217 220 220 217 216 212 208 204 198 193 187 179 176 181 186 192 198 201 206 208 208 210 210 210 213 214 217 220 222 225 227 226 228 229 231 231 233 237 244 252 257 257 254 251 246 243 247 250 253 261 270 279 288 295 297 299 303 305 309 311 315 317 316 314 310 308 307 305 305 305 306 307 308 308 309 310 313 315 315 315
206 211 223 231 225 219 220 232 252 245 220 219 222 217 219 218 215 218 220 219 218 216 211 209 206 201 198 194 187 180 181 183 188 198 204 210 218 218 217 218 218 219 219 218 220 221 222 224 226 227 228 231 233 233 238 243 249 253 252 248 244 240 238 242 247 252 259 268 275 281 285 287 290 292 294 297 299 304 308 309 308 305 304 304 303 303 303 303 303 303 303 304 306 308 309 310 309
211 214 218 221 221 223 223 223 237 242 227 222 224 219 219 219 217 219 221 222 220 216 214 212 209 206 203 199 196 192 189 189 189 194 202 207 217 225 226 225 227 228 227 225 224 224 225 226 227 228 229 230 231 232 235 240 243 246 246 244 241 241 243 246 253 258 263 270 276 280 283 286 289 290 291 294 297 301 304 305 304 301 300 301 302 302 301 301 301 301 301 301 303 304 305 305 305
215 214 216 216 216 218 222 231 243 249 238 226 224 223 221 219 219 219 222 224 222 220 219 216 213 211 208 204 203 203 198 196 197 198 201 207 212 220 225 229 236 237 235 233 231 230 230 230 229 229 228 227 227 228 231 233 235 237 238 240 242 244 248 253 258 262 268 273 278 283 286 289 292 294 296 298 301 303 304 303 302 301 301 301 301 300 299 299 298 299 300 300 300 301 302 302 301
220 216 213 211 216 218 217 234 251 249 236 227 224 225 224 223 222 220 222 224 223 224 224 221 219 215 211 210 210 211 209 205 205 207 209 212 216 220 223 228 235 239 240 239 237 236 235 233 230 228 226 225 224 224 226 228 229 231 234 238 243 247 252 258 262 268 273 278 282 287 290 294 296 298 301 303 304 305 305 305 305 305 305 304 303 302 300 299 298 298 299 299 300 301 301 300 298
221 221 219 212 213 219 216 230 249 250 239 229 226 226 225 225 225 222 221 223 223 225 226 227 228 224 217 214 214 215 219 217 214 214 217 220 223 224 225 229 233 237 241 243 242 240 238 236 233 231 229 226 224 224 224 226 228 230 234 238 244 250 256 263 269 274 279 283 288 292 294 297 300 302 304 305 306 306 306 307 307 306 306 305 305 304 302 300 299 298 298 299 300 300 300 299 297
217 217 223 223 218 216 213 226 242 248 244 235 230 229 228 227 225 223 225 225 225 226 228 229 232 233 226 220 219 219 222 225 225 223 223 226 229 230 230 231 234 237 241 245 246 244 240 238 237 236 235 232 230 229 228 229 231 233 237 242 248 255 262 268 273 277 283 288 292 294 296 298 300 303 304 306 307 308 306 306 305 306 306 306 305 303 300 299 299 299 299 299 299 299 299 298 296
217 212 217 227 227 219 216 228 237 243 245 239 232 230 230 231 226 223 225 226 228 230 230 231 231 234 231 224 220 221 225 227 230 231 231 231 231 232 233 232 233 235 238 242 245 244 243 242 241 239 239 238 237 236 237 238 240 242 244 249 255 262 267 271 276 280 285 290 293 294 295 297 300 300 302 306 308 308 306 304 304 304 305 305 303 302 302 302 302 302 301 300 299 299 298 297 296
219 214 213 220 235 232 225 229 233 240 245 239 231 232 234 232 226 224 226 225 228 230 230 233 233 236 239 233 221 218 223 228 233 236 236 236 235 234 234 234 234 235 235 239 244 247 248 245 244 243 241 242 243 243 244 245 247 250 252 256 262 267 271 274 276 280 283 288 290 290 291 294 296 297 300 304 306 307 306 304 303 303 303 304 304 306 306 306 305 304 302 300 299 298 296 295 294
221 218 213 210 231 237 232 231 228 233 241 238 234 239 244 238 227 226 230 230 230 230 230 232 234 239 242 238 231 224 221 223 231 240 242 241 240 239 238 237 236 236 236 240 245 248 249 248 247 248 248 248 249 249 249 249 251 254 258 262 267 271 273 275 275 276 280 284 283 283 287 292 295 299 303 307 309 309 308 306 304 303 303 304 305 308 308 307 305 303 301 301 299 296 294 292 291
224 219 211 210 224 229 229 228 227 230 235 235 231 234 244 244 233 228 233 235 232 231 233 235 237 240 235 232 237 240 235 227 230 246 256 255 251 245 240 237 236 237 238 241 244 246 246 248 249 252 253 252 251 251 251 251 253 256 259 263 268 271 272 273 273 274 276 276 276 280 287 294 299 303 305 308 310 312 311 311 310 309 308 308 308 308 307 305 304 301 300 300 300 298 295 292 290
226 221 211 213 224 226 225 222 224 231 233 230 226 226 238 244 236 227 227 232 237 234 230 233 238 239 235 235 239 244 243 239 244 259 265 266 263 254 244 241 239 240 242 243 245 246 247 248 250 252 253 251 251 251 251 252 253 254 259 262 266 268 270 272 272 271 270 270 275 283 292 299 304 306 307 310 313 314 314 314 314 313 313 313 312 311 309 308 306 303 302 300 300 299 296 293 291
225 222 212 212 219 219 221 221 222 231 235 232 225 223 234 240 238 229 222 225 239 240 231 231 235 235 241 242 236 238 242 239 241 261 270 271 269 264 258 255 251 249 249 248 248 248 248 247 248 249 250 251 252 253 252 252 253 255 259 263 264 266 269 271 269 266 265 270 280 289 296 302 307 308 310 313 315 315 314 314 314 315 316 316 316 315 315 314 312 308 304 301 299 298 295 292 290
227 223 215 216 221 218 217 223 225 228 234 239 234 230 233 235 237 238 232 224 225 233 232 228 228 232 240 240 233 236 245 244 240 256 271 270 264 264 269 272 269 262 257 255 253 250 247 245 244 245 247 250 251 252 252 251 252 256 261 262 261 264 268 268 266 263 265 274 285 293 298 303 308 311 313 315 315 314 314 315 315 315 315 317 317 318 317 317 315 312 307 304 301 299 296 291 287
230 226 219 222 228 224 219 227 234 233 235 237 237 239 240 237 233 236 238 231 226 231 234 223 222 235 238 241 242 239 241 245 251 258 260 262 261 265 273 280 278 271 265 262 258 251 246 242 242 244 245 247 250 251 252 252 253 256 260 260 260 264 266 266 262 262 266 277 286 291 297 302 306 310 313 315 315 314 313 313 314 315 316 318 317 315 314 315 314 312 309 306 304 305 304 298 290
231 229 223 227 233 229 224 228 232 233 236 237 235 240 245 245 240 235 235 233 227 228 232 224 225 234 235 241 248 244 239 238 249 260 253 251 256 262 271 279 282 281 276 271 266 259 254 250 248 249 248 249 250 251 251 252 253 255 258 258 259 262 263 262 261 262 269 279 286 291 295 298 303 307 311 313 313 312 309 307 308 311 315 317 316 313 312 313 313 311 309 306 305 307 309 305 296
227 230 227 227 230 228 226 230 231 232 235 237 235 236 237 241 245 243 239 236 231 228 232 229 222 227 240 250 247 241 237 234 247 262 254 245 247 255 267 277 283 285 282 278 277 273 271 268 261 255 252 250 249 249 250 251 253 255 255 255 255 258 260 259 259 262 270 279 285 289 293 297 302 307 311 313 313 312 309 307 308 311 313 313 312 311 311 311 310 308 307 303 300 304 307 304 297
222 227 230 229 229 226 223 226 228 230 234 236 235 235 235 234 240 246 243 239 237 234 232 230 224 227 245 254 244 235 232 229 241 258 257 247 243 246 258 268 273 279 283 283 282 284 286 281 270 261 255 251 250 251 252 252 252 252 251 251 252 255 256 256 258 263 271 278 282 287 292 297 302 307 314 318 317 314 311 310 312 315 316 314 311 311 311 312 310 309 307 300 296 301 303 299 295
222 220 224 229 231 228 225 225 224 223 230 235 235 234 235 233 236 248 253 244 236 230 226 233 237 232 241 255 248 236 228 222 228 245 253 249 242 239 246 257 264 271 280 285 284 289 292 285 276 268 262 258 256 256 253 251 250 249 249 249 250 250 252 255 260 267 274 278 281 288 293 298 302 307 315 320 318 313 310 311 315 316 315 312 311 311 310 311 310 311 310 301 294 298 298 292 291
227 220 217 221 227 226 225 228 229 229 230 232 235 237 237 232 228 243 255 247 229 223 225 236 240 224 221 248 257 244 228 220 219 229 242 248 247 245 245 251 259 265 276 286 289 291 293 291 282 270 264 263 262 260 257 253 251 251 248 246 246 248 253 259 265 272 277 281 285 292 296 300 305 310 317 320 317 313 310 311 314 312 309 310 312 311 308 309 312 314 314 303 290 291 291 288 288
234 230 224 220 221 223 225 227 229 233 235 230 229 235 239 234 226 233 245 244 230 216 216 220 219 210 208 225 253 248 225 214 212 217 231 244 249 251 251 249 254 263 274 285 291 292 292 292 283 271 267 264 261 261 258 255 253 249 245 245 248 253 259 263 269 274 279 283 288 293 297 302 309 315 320 319 317 313 308 308 310 308 307 309 313 311 304 302 309 312 310 302 289 285 287 288 289